Weather History for Charles City, IA

Change the Weather History Date:

Friday, December 6, 2013

  Actual Average Record
Temperature  
Mean Temperature 6 °F -  
Max Temperature 12 °F 30 °F 55 °F (1951)
Min Temperature 0 °F 14 °F -12 °F (1972)
Degree Days  
Heating Degree Days 59    
Moisture  
Dew Point -5 °F    
Average Humidity 65    
Maximum Humidity 72    
Minimum Humidity 57    
Precipitation  
Precipitation 0.00 in - - ()
Sea Level Pressure  
Sea Level Pressure 30.48 in    
Wind  
Wind Speed 13 mph (NW)    
Max Wind Speed 17 mph    
Max Gust Speed 23 mph    
Visibility 10 miles    
Events      
Averages and records for this station are not official NWS values.
T = Trace of Precipitation, MM = Missing Value Source: NWS Daily Summary

Daily Weather History Graph

Daily Weather History Graph

Search for Another Location

Airport:

Trip Planner

Search our weather history database for the weather conditions in past years. The results will help you decide how hot, cold, wet, or windy it might be!

Date:

Astronomy

Dec. 06, 2013 Rise Set
Actual Time 7:27 AM CST 4:35 PM CST
Civil Twilight 6:55 AM CST 5:07 PM CST
Nautical Twilight 6:19 AM CST 5:43 PM CST
Astronomical Twilight 5:45 AM CST 6:17 PM CST
Moon 10:29 AM CST (12/6) 9:12 PM CST (12/6)
Length of Visible Light 10h 12m
Length of Day
9h 07m
Waxing Crescent, 19% of the Moon is Illuminated
Dec 6
Waxing Crescent
Dec 9
First Quarter
Dec 17
Full
Dec 25
Last Quarter
Jan 1
New

Hourly Weather History & Observations

Time (CST) Temp. Windchill Dew Point Humidity Pressure Visibility Wind Dir Wind Speed Gust Speed Precip Events Conditions
12:15 AM 5.0 °F -13.6 °F -4.0 °F 66% 30.33 in 10.0 mi NW 16.1 mph - N/A   Scattered Clouds
5:35 AM 1.4 °F -12.5 °F -5.8 °F 72% 30.40 in 10.0 mi WNW 8.1 mph - N/A   Partly Cloudy
5:55 AM 1.4 °F -13.5 °F -7.6 °F 66% 30.40 in 10.0 mi WNW 9.2 mph - N/A   Scattered Clouds
6:15 AM 1.4 °F -15.3 °F -7.6 °F 66% 30.41 in 10.0 mi WNW 11.5 mph - N/A   Mostly Cloudy
6:35 AM -0.4 °F -18.4 °F -7.6 °F 72% 30.41 in 10.0 mi WNW 12.7 mph - N/A   Partly Cloudy
6:55 AM -0.4 °F -16.7 °F -7.6 °F 72% 30.40 in 10.0 mi WNW 10.4 mph - N/A   Clear
7:15 AM -0.4 °F -19.2 °F -7.6 °F 72% 30.42 in 10.0 mi NW 13.8 mph - N/A   Clear
7:35 AM -0.4 °F -19.9 °F -7.6 °F 72% 30.43 in 10.0 mi WNW 15.0 mph - N/A   Clear
7:55 AM -0.4 °F -17.6 °F -7.6 °F 72% 30.44 in 10.0 mi WNW 11.5 mph - N/A   Partly Cloudy
8:15 AM -0.4 °F -19.2 °F -7.6 °F 72% 30.43 in 10.0 mi WNW 13.8 mph - N/A   Partly Cloudy
8:35 AM 1.4 °F -15.3 °F -7.6 °F 66% 30.43 in 10.0 mi NW 11.5 mph 18.4 mph N/A   Clear
8:55 AM 1.4 °F -18.8 °F -7.6 °F 66% 30.42 in 10.0 mi NW 17.3 mph - N/A   Clear
9:15 AM 1.4 °F -16.9 °F -7.6 °F 66% 30.43 in 10.0 mi NNW 13.8 mph 20.7 mph N/A   Clear
9:35 AM 3.2 °F -15.9 °F -5.8 °F 66% 30.46 in 10.0 mi NW 16.1 mph 21.9 mph N/A   Clear
9:55 AM 3.2 °F -15.3 °F -5.8 °F 66% 30.47 in 10.0 mi NNW 15.0 mph - N/A   Clear
10:15 AM 5.0 °F -13.0 °F -5.8 °F 61% 30.47 in 10.0 mi NW 15.0 mph - N/A   Clear
10:35 AM 5.0 °F -13.0 °F -4.0 °F 66% 30.47 in 10.0 mi NW 15.0 mph - N/A   Partly Cloudy
10:55 AM 6.8 °F -10.7 °F -4.0 °F 61% 30.46 in 10.0 mi NNW 15.0 mph 20.7 mph N/A   Partly Cloudy
11:15 AM 8.6 °F -9.5 °F -2.2 °F 62% 30.46 in 10.0 mi NNW 17.3 mph - N/A   Partly Cloudy
11:35 AM 8.6 °F -9.5 °F -2.2 °F 62% 30.46 in 10.0 mi NNW 17.3 mph - N/A   Scattered Clouds
11:55 AM 8.6 °F -8.3 °F -2.2 °F 62% 30.45 in 10.0 mi NW 15.0 mph 20.7 mph N/A   Partly Cloudy
12:15 PM 8.6 °F -8.9 °F -2.2 °F 62% 30.45 in 10.0 mi NNW 16.1 mph - N/A   Partly Cloudy
12:35 PM 10.4 °F -4.8 °F -0.4 °F 62% 30.44 in 10.0 mi NNW 12.7 mph 20.7 mph N/A   Scattered Clouds
12:55 PM 10.4 °F -4.8 °F -0.4 °F 62% 30.45 in 10.0 mi NNW 12.7 mph 20.7 mph N/A   Scattered Clouds
1:15 PM 10.4 °F -5.4 °F -0.4 °F 62% 30.44 in 10.0 mi NNW 13.8 mph 20.7 mph N/A   Scattered Clouds
1:35 PM 10.4 °F -7.2 °F -0.4 °F 62% 30.44 in 10.0 mi NNW 17.3 mph 23.0 mph N/A   Scattered Clouds
1:55 PM 10.4 °F -6.6 °F -0.4 °F 62% 30.44 in 10.0 mi NNW 16.1 mph - N/A   Scattered Clouds
2:15 PM 12.2 °F -3.1 °F -0.4 °F 57% 30.45 in 10.0 mi NW 13.8 mph 20.7 mph N/A   Scattered Clouds
2:35 PM 12.2 °F -3.7 °F -0.4 °F 57% 30.45 in 10.0 mi NNW 15.0 mph 20.7 mph N/A   Partly Cloudy
2:55 PM 12.2 °F -3.7 °F -0.4 °F 57% 30.45 in 10.0 mi NNW 15.0 mph - N/A   Scattered Clouds
3:15 PM 12.2 °F -3.7 °F -0.4 °F 57% 30.46 in 10.0 mi NNW 15.0 mph - N/A   Scattered Clouds
3:35 PM 12.2 °F -2.5 °F -0.4 °F 57% 30.47 in 10.0 mi NW 12.7 mph 18.4 mph N/A   Partly Cloudy
3:55 PM 10.4 °F -5.4 °F -0.4 °F 62% 30.47 in 10.0 mi NW 13.8 mph - N/A   Partly Cloudy
4:15 PM 10.4 °F -4.8 °F -0.4 °F 62% 30.48 in 10.0 mi NW 12.7 mph - N/A   Mostly Cloudy
4:35 PM 10.4 °F -1.5 °F -0.4 °F 62% 30.49 in 10.0 mi NW 8.1 mph 15.0 mph N/A   Mostly Cloudy
4:55 PM 8.6 °F -5.5 °F -0.4 °F 67% 30.49 in 10.0 mi NW 10.4 mph - N/A   Mostly Cloudy
6:15 PM 6.8 °F -6.9 °F -0.4 °F 72% 30.51 in 10.0 mi WNW 9.2 mph - N/A   Scattered Clouds
6:35 PM 6.8 °F -9.3 °F -2.2 °F 67% 30.51 in 10.0 mi NW 12.7 mph - N/A   Mostly Cloudy
6:55 PM 5.0 °F -12.3 °F -2.2 °F 72% 30.52 in 10.0 mi NW 13.8 mph - N/A   Mostly Cloudy
7:15 PM 5.0 °F -10.8 °F -4.0 °F 66% 30.53 in 10.0 mi NW 11.5 mph 18.4 mph N/A   Scattered Clouds
7:35 PM 3.2 °F -13.9 °F -4.0 °F 72% 30.54 in 10.0 mi NW 12.7 mph - N/A   Mostly Cloudy
7:55 PM 3.2 °F -13.9 °F -4.0 °F 72% 30.55 in 10.0 mi WNW 12.7 mph - N/A   Partly Cloudy
8:15 PM 3.2 °F -14.6 °F -5.8 °F 66% 30.56 in 10.0 mi NW 13.8 mph - N/A   Clear
8:35 PM 3.2 °F -14.6 °F -5.8 °F 66% 30.57 in 10.0 mi NW 13.8 mph - N/A   Clear
8:55 PM 1.4 °F -16.9 °F -7.6 °F 66% 30.58 in 10.0 mi NW 13.8 mph - N/A   Clear
9:15 PM 1.4 °F -17.6 °F -7.6 °F 66% 30.58 in 10.0 mi WNW 15.0 mph - N/A   Partly Cloudy
9:35 PM 1.4 °F -16.9 °F -7.6 °F 66% 30.59 in 10.0 mi NW 13.8 mph - N/A   Partly Cloudy
9:55 PM -0.4 °F -18.4 °F -7.6 °F 72% 30.59 in 10.0 mi NW 12.7 mph - N/A   Clear
10:15 PM -0.4 °F -17.6 °F -9.4 °F 66% 30.60 in 10.0 mi NW 11.5 mph - N/A   Clear
10:35 PM -0.4 °F -18.4 °F -9.4 °F 66% 30.60 in 10.0 mi NW 12.7 mph - N/A   Clear
10:55 PM -0.4 °F -18.4 °F -9.4 °F 66% 30.60 in 10.0 mi NW 12.7 mph - N/A   Clear
11:15 PM -0.4 °F -19.2 °F -9.4 °F 66% 30.60 in 10.0 mi NW 13.8 mph - N/A   Clear
11:35 PM -0.4 °F -16.7 °F -9.4 °F 66% 30.61 in 10.0 mi NW 10.4 mph - N/A   Clear
11:55 PM -0.4 °F -16.7 °F -9.4 °F 66% 30.62 in 10.0 mi NW 10.4 mph - N/A   Clear